Live Position
Loading 3D Globe...
About Connecta IOT-7
Group: 3 satellites
Description loading...
Upcoming Passes
Passes for default location (London). Set your location on the main map for personalized predictions.
Altitude History
Loading altitude history...
No altitude history available
Two-Line Element Set
1 62715U 25009DL 26105.68654870 .00000634 00000-0 64686-4 0 9992
2 62715 97.7090 185.5993 0002553 71.0836 289.0661 14.94057089 68019
Epoch: Apr 15, 2026 •
Age: 12 hours
Current Status
Altitude 600.8 km
Velocity 7.56 km/s
Sub-Earth Point -36.70°S,
85.55°E
Launch Date Jan 14, 2025
Age 1.2 years
Type other
Technical Details
Classification Payload
Mass 10.00 kg
Dry Mass 10.00 kg
Total Mass 10.00 kg
Length 0.30 m
Diameter 0.20 m
Span 0.30 m
Shape Box
Manufacturer PLNSST
Bus Type Cubesat 6U
Phase Status In Orbit
Owner/State PLNSST/TR
Most Searched
Loading...